FENGYUN 2H AKM

Satellite information

Favourite Embed

Satellite Type and Status

ROCKET BODYIN ORBIT

Key statistics

Satellite FENGYUN 2H AKM at a glance.

Uptime

2653

Days in orbit

Revolutions

≈ 1.0

Per day

Orbit

GEO

Geostationary Orbit

Inclination

4.1

Latest

Satellite identification and parameters

Extended collection of information and parameters for FENGYUN 2H AKM.

Object identification

Identified? True

Debris? False

Object name: FENGYUN 2H AKM

International designator: 2018-050C

Object number (NORAD): 43497

Object ID (CCSDS): 43497

Country: PEOPLES REPUBLIC OF CHINA (PRC)

Current information (Y/N): Y

Orbital parameters

Period: 1438.749 minutes

Inclination: 4.1396 deg

SMA: 42216.63 km

Apoapsis: 36201.717 km

Periapsis: 35475.272 km

RAAN: 80.3079 deg

Eccentricy: 0.00860377

Argument of periapsis: 317.7016 deg

Mean anomaly: 42.023 deg

Mean motion: 1.00086943 rev/day

Mean motion (dot): -0.00000132 rev/day2

B* drag term: 0.0 1/REarth

Two-line elements (TLE)

Creation date: Sept. 8, 2025, 6:18 p.m.

Reference frame: TEME

Reference center: EARTH

Epoch: Sept. 8, 2025, 6:59 a.m. UTC

TLE line 0: 0 FENGYUN 2H AKM

TLE line 1: 1 43497U 18050C 25251.29139175 -.00000132 00000-0 00000-0 0 9990

TLE line 2: 2 43497 4.1396 80.3079 0086038 317.7016 42.0230 1.00086943 26481

Live tracking on map

Real-time ground track for satellite FENGYUN 2H AKM.

In-orbit conjunctions

A list of the most updated potential collisions computed for object FENGYUN 2H AKM.

Target Orbit TCA Probability of collision Miss distance Type
EUTE 2-F2 OTHER 2024-07-01 20:45:10 TBA 3638.0 (m) PAYLOAD

Associated space launch

Fengyun is China's meteorogical satellite program. It includes polar-orbiting and geostationary spacecrafts. Fengyun-2H is a geostationary satellite expected to operate in orbit for about 5 years.

FENGYUN 2H AKM was lifted into orbit during the mission ‘Long March 3A | Fengyun-2H’, on board a Long March 3A space rocket.

The launch took place on June 5, 2018, 1:07 p.m. from Launch Complex 3 (LC-3/LA-1).

For more information about the launch, click the button.

Launch to space Long March 3A | Fengyun-2H
Long March 3A | Fengyun-2H

Agency: N/A

Status: Launch Successful

Launch date: June 5, 2018, 1:07 p.m. UTC

Rocket: Long March 3A

Launch pad: Launch Complex 3 (LC-3/LA-1)

Location: Xichang Satellite Launch Center, People's Republic of China

...

Latest news about this satellite

There are no fresh news available about this satellite. Check back as we update our databases every day.


Newsletter sign-up

Weekly statistics, charts and insights to help you stay on top of the space industry.